Terminal Aerodrome Forecast
Issued by NWS Grand Forks, ND

Home | Current Version | Previous Version | Graphics & Text | Print | Product List | Glossary On
Versions: 1 2 3 4 5 6 7 8 9 10
000
FTUS43 KFGF 241100
TAFFAR
TAF
KFAR 241123Z 2412/2512 VRB06KT P6SM OVC010
      TEMPO 2414/2416 OVC015
     FM241600 VRB06KT P6SM BKN015
     FM242100 18010KT P6SM BKN040=

USA.gov is the U.S. government's official web portal to all federal, state and local government web resources and services.